Regional Weather Roundup
Issued by NWS Mobile, AL

Home | Current Version | Previous Version | Text Only | Print | Product List | Glossary On
Versions: 1 2 3 4 5 6 7 8 9 10 11 12 13 14 15 16 17 18 19 20 21 22 23 24 25 26 27 28 29 30 31 32 33 34 35 36 37 38 39 40 41 42 43 44 45 46 47 48 49 50
000
ASUS44 KMOB 220810
RWRMOB
REGIONAL WEATHER ROUNDUP
NATIONAL WEATHER SERVICE MOBILE AL
300 AM CDT FRI AUG 22 2014

NOTE: "FAIR" INDICATES FEW OR NO CLOUDS BELOW 12,000 FEET WITH NO
      SIGNIFICANT WEATHER AND/OR OBSTRUCTIONS TO VISIBILITY.

  * THESE STATIONS ARE PART OF THE UNIVERSITY OF SOUTH ALABAMA
    MESONET AND ARE NOT UNDER NWS OR FAA QUALITY CONTROL.

ALZ061>064-220900-
COASTAL ALABAMA

CITY           SKY/WX    TMP DP  RH WIND       PRES   REMARKS
MOBILE REG APT CLEAR     76  76 100 W5        30.08S
BROOKLEY FIELD CLEAR     79  77  94 W3        30.08S
USA CAMPUS*      N/A     77  75  94 CALM      30.06F
DOG RIVER*       N/A     77  77 100 CALM      30.07S


CITY           SKY/WX    TMP DP  RH WIND       PRES   REMARKS
MOUNT VERNON*  NOT AVBL
SARALAND*      NOT AVBL
BAY MINETTE*   NOT AVBL
LOXLEY*          N/A    N/A N/A N/A NW2       30.07S
ROBERTSDALE*     N/A    N/A N/A N/A CALM      30.06F
FAIRHOPE*        N/A     75  75 100 CALM      30.06S
ELBERTA*         N/A     77  64  65 CALM      30.05F
FOLEY*         NOT AVBL
GRAND BAY*       N/A     75  73  94 CALM      30.05F
DAUPHIN ISLND* NOT AVBL
BON SCOUR NWR* NOT AVBL
GULF SHORES    CLEAR     75  74  96 CALM      30.05F

$$

ALZ051>060-220900-
INTERIOR SOUTHWEST AND SOUTH CENTRAL ALABAMA

CITY           SKY/WX    TMP DP  RH WIND       PRES   REMARKS
GREENVILLE     CLEAR     76  72  87 CALM      30.07S
EVERGREEN      CLEAR     75  73  93 CALM      30.07F FOG
CASTLEBERRY*   NOT AVBL
ATMORE*          N/A     75  75 100 CALM      30.08F
DIXIE*         NOT AVBL
ANDALUSIA/OPP  CLEAR     80  75  84 CALM      30.07R
ANDALUSIA*     NOT AVBL
FLORALA APT    CLEAR     78  75  90 CALM      30.08F
FLORALA*         N/A     75  73  94 CALM      30.05S

$$

FLZ001>006-220900-
WESTERN FLORIDA PANHANDLE

CITY           SKY/WX    TMP DP  RH WIND       PRES   REMARKS
PENSACOLA      PTCLDY    79  74  84 W5        30.05F
NAS PENSACOLA  PTCLDY    76  74  93 CALM      30.05F
MILTON         PTCLDY    76  73  91 NW5       30.06F
WHTNG S FIELD  PTCLDY    77  73  87 NW3       30.06F


CITY           SKY/WX    TMP DP  RH WIND       PRES   REMARKS
WALNUT HILL*   NOT AVBL
JAY*           NOT AVBL
DUKE FIELD     CLEAR     78  77  96 VRB1      30.06F
CRESTVIEW      CLEAR     75  74  96 CALM      30.07F
VALPARAISO     PTCLDY    78  75  89 NW3       30.05F
DESTIN         PTCLDY    84  76  76 CALM      30.04F

$$

MSZ076-079-220900-
INTERIOR SOUTHEAST MISSISSIPPI

CITY           SKY/WX    TMP DP  RH WIND       PRES   REMARKS
LEAKESVILLE*   NOT AVBL
AGRICOLA*      NOT AVBL

$$

MARINE OBSERVATIONS

STATION/POSITION TIME  TEMP    WIND        PRES    WAVE
                       AIR SEA DIR/SP/G            HT/PER
                 (UTC) (F)     (DEG/KT/KT) (MB)    (FT/S)
PASCAGOULA       0800   82     340/  4/  5 1017.9R
PETIT BOIS ISLND 0800   85     270/ 10/ 12 1018.1F
GRAND BAY        0700   84     250/  5     1019.0S
KATRINA CUT      0700   85     250/  6     1018.6F
CEDAR POINT      0700   85     240/  7     1018.6S
E DAUPHIN ISLAND 0700   85     250/  4/  5 1018.1F
MIDDLE BAY LIGHT 0700   85     250/  9     1016.9F
USCG MOBILE BAY  0800   81 86  270/  3/  4 1017.0S
STATE DOCKS      0800   82 87              1017.8S
MEAHER PARK      0700   84     260/  4     1017.6F
WEEKS BAY        0700   74                   N/A
FORT MORGAN      0800   85     280/  9/ 10 1017.3S
12 S ORANGE BCH  0800   85 86  270/  8/ 10 1017.5F   1/ 5
PENSACOLA BAY    0800   83 88  290/  4/  6 1017.8F
64 S DAUPHIN ISL 0709   85 89  260/  4/  6 1018.2F
67 S FORT MORGAN 0700   84                 1018.0F

$$

SELECTED LOCATIONS ACROSS THE REGION

CITY           SKY/WX    TMP DP  RH WIND       PRES   REMARKS
NEW ORLEANS    PTCLDY    75  72  90 W5        30.07S
GULFPORT       PTCLDY    78  76  93 CALM      30.06F
PASCAGOULA AP  PTCLDY    75  74  96 CALM      30.07S
PASCAGOULA*      N/A     82  79  89 CALM      30.06S
HATTIESBURG    FOG       75  73  93 NW3       30.09S VSB 1/2
LAUREL         CLEAR     73  70  88 CALM      30.10S
MERIDIAN       CLEAR     72  69  90 S5        30.09R
JACKSON        PTCLDY    73  72  96 SE3       30.08S
MONTGOMERY     CLEAR     78  75  90 CALM      30.06S
TROY           CLEAR     74  72  93 CALM      30.08S
KINSTON*       NOT AVBL
GENEVA*          N/A     77  73  88 SW2       30.07F
ASHFORD*       NOT AVBL
DOTHAN         CLEAR     75  73  93 CALM      30.10F
PANAMA CITY    CLEAR     77  74  90 CALM      30.04F

$$



USA.gov is the U.S. government's official web portal to all federal, state and local government web resources and services.